Preview of NWS' New Version of Forecast
This preview is not operational and should not be used for support decisions.

Regional Weather Roundup (RWR)

Issued by National Weather Service (NWS)

                            
000
ASUS43 KTOP 192159
RWRKS 

WEATHER ROUNDUP FOR KANSAS
NATIONAL WEATHER SERVICE GOODLAND KS
400 PM CST TUE FEB 19 2019

NOTE:  "FAIR" INDICATES FEW OR NO CLOUDS BELOW 12,000 FEET WITH NO
SIGNIFICANT WEATHER AND/OR OBSTRUCTIONS TO VISIBILITY.

KSZ001>006-013>018-027>032-041>047-192300-
NORTHWEST KANSAS
  
CITY           SKY/WX    TMP DP  RH WIND       PRES   REMARKS
GOODLAND       CLOUDY    17  15  92 SE13      29.90F FOG     WCI   4  
HAYS           LGT SNOW  23  20  88 E12       30.04F FOG     WCI  12  
HILL CITY      CLOUDY    24  18  77 E9        30.04F                  
RUSSELL        LGT SNOW  24  22  91 E10       30.04F VSB 1   WCI  14  
$$

KSZ061>065-074>080-084>089-192300-
SOUTHWEST KANSAS
  
CITY           SKY/WX    TMP DP  RH WIND       PRES   REMARKS
DODGE CITY     CLOUDY    24  18  77 SE9       29.95F HAZE             
ELKHART        CLOUDY    25  22  88 SE10      29.87F WCI  15          
GARDEN CITY    CLOUDY    22  20  92 SE12      29.94F FOG     WCI  10  
GREAT BEND     LGT SNOW  25  22  88 NE12      30.02F FOG     WCI  14  
LIBERAL        MIX PCPN  23  20  88 SE9       29.94F FOG              
$$

KSZ066>073-081>083-090>101-192300-
SOUTHEAST KANSAS
  
CITY           SKY/WX    TMP DP  RH WIND       PRES   REMARKS
CHANUTE        CLOUDY    37  24  59 NE10      30.11F WCI  30          
COFFEYVILLE    CLOUDY    39  23  52 E12G17    30.08F WCI  32          
HUTCHINSON     HVY SNOW  28  27  96 E12       30.04F VSB 1/4 WCI  18  
MEDICINE LODGE   N/A     26  25  96 E5        30.04F                  
NEWTON         MIX PCPN  31  23  72 E12       30.06F WCI  22          
PARSONS        CLOUDY    38  22  52 VRB5      30.10F                  
WICHITA INTL   SNOW      31  28  89 E13       30.05F VSB 1/2 WCI  21  
WICHITA JABRA  LGT SNOW  32  23  69 E10       30.06F WCI  24          
WICHITA MCCONL LGT SNOW  31  27  83 E10       30.05  WCI  22          
WINFIELD       SNOW      30  28  92 E7        30.06F VSB 1/2          
$$

KSZ007>012-019>026-033>040-048>060-102>105-192300-
NORTHEAST KANSAS
  
CITY           SKY/WX    TMP DP  RH WIND       PRES   REMARKS
CONCORDIA      LGT SNOW  25  19  78 E14G24    30.14S WCI  13          
EMPORIA        CLOUDY    30  22  72 E14       30.12F WCI  19          
LAWRENCE       CLOUDY    30  20  66 E13       30.21S WCI  20          
MANHATTAN      CLOUDY    30  21  69 NE7       30.18F                  
OLATHE IND     CLOUDY    29  21  72 E15G23    30.19S WCI  18          
OLATHE EXE     CLOUDY    28  20  71 E16G23    30.18F WCI  16          
SALINA         CLOUDY    28  24  85 E12       30.11F WCI  18          
TOPEKA BILLARD CLOUDY    31  20  63 E10       30.21S WCI  22          
TOPEKA FORBES  CLOUDY    31  20  63 NE9       30.18S                  
$$